DW2363 Weather Reports


time (UTC)temp
C
wind
direction
speed
KPH
gust
KPH
rain 1hr
cm
rain 24hr
cm
rain mn
cm
humidity
%
barometer
mb
20260905022437 20 284 0.0 1.6 0.00 0.00 0.00 63 1013.2
20260905022433 20 286 0.0 3.2 0.00 0.00 0.00 65 1013.2
20260905021434 21 284 0.0 3.2 0.00 0.00 0.00 62 1013.2
20260905020933 21 284 4.8 11.3 0.00 0.00 0.00 62 1013.4
20260905020434 21 283 8.0 12.9 0.00 0.00 0.00 63 1013.4
20260905015933 21 277 6.4 12.9 0.00 0.00 0.00 62 1013.4
20260905015433 21 274 1.6 9.7 0.00 0.00 0.00 62 1013.4
20260905014933 21 293 0.0 4.8 0.00 0.00 0.00 62 1013.4
20260905014433 22 301 1.6 4.8 0.00 0.00 0.00 62 1013.6
20260905013934 22 97 0.0 4.8 0.00 0.00 0.00 64 1013.5
20260905013434 22 315 1.6 4.8 0.00 0.00 0.00 55 1013.4
20260905012933 22 344 1.6 4.8 0.00 0.00 0.00 55 1013.5
20260905012433 22 209 1.6 8.0 0.00 0.00 0.00 62 1013.5
20260905011935 22 178 1.6 8.0 0.00 0.00 0.00 65 1013.5
20260905011433 22 259 1.6 6.4 0.00 0.00 0.00 40 1013.6
20260905010933 21 259 3.2 6.4 0.00 0.00 0.00 41 1013.7
20260905010433 21 250 4.8 8.0 0.00 0.00 0.00 56 1013.6
20260905005938 22 202 4.8 8.0 0.00 0.00 0.00 63 1013.7
20260905005934 22 201 4.8 8.0 0.00 0.00 0.00 60 1013.7
20260905005540 22 183 3.2 8.0 0.00 0.00 0.00 63 1013.6
20260905004433 22 171 1.6 9.7 0.00 0.00 0.00 55 1013.6
20260905003933 22 152 1.6 9.7 0.00 0.00 0.00 43 1013.6
20260905003434 22 184 3.2 9.7 0.00 0.00 0.00 55 1013.6
20260905002937 22 227 3.2 12.9 0.00 0.00 0.00 49 1013.6
20260905002933 22 219 3.2 9.7 0.00 0.00 0.00 49 1013.6
20260905001933 21 219 4.8 12.9 0.00 0.00 0.00 58 1013.7
20260905001434 21 211 6.4 12.9 0.00 0.00 0.00 57 1013.6
20260905000933 22 199 8.0 12.9 0.00 0.00 0.00 70 1013.7
20260905000433 22 202 6.4 11.3 0.00 0.00 0.00 65 1013.7
20260904235933 22 153 4.8 9.7 0.00 0.00 0.00 43 1013.7
20260904235433 22 155 3.2 8.0 0.00 0.00 0.00 34 1013.6
20260904234937 21 220 6.4 12.9 0.00 0.00 0.00 65 1013.7
20260904234931 22 140 3.2 11.3 0.00 0.00 0.00 51 1013.6
20260904233931 21 171 6.4 12.9 0.00 0.00 0.00 70 1013.8
20260904233431 21 185 6.4 11.3 0.00 0.00 0.00 70 1013.8
20260904232931 21 148 6.4 12.9 0.00 0.00 0.00 59 1013.7
20260904232431 21 231 8.0 14.5 0.00 0.00 0.00 66 1013.7
20260904231929 21 190 9.7 17.7 0.00 0.00 0.00 71 1013.7
20260904231429 21 158 11.3 19.3 0.00 0.00 0.00 67 1013.7
20260904230929 21 171 9.7 19.3 0.00 0.00 0.00 64 1013.7
20260904230434 20 163 9.7 16.1 0.00 0.00 0.00 64 1013.8
20260904230429 21 173 9.7 16.1 0.00 0.00 0.00 68 1013.7
20260904225428 20 162 9.7 16.1 0.00 0.00 0.00 65 1013.8
20260904224929 20 171 11.3 16.1 0.00 0.00 0.00 65 1013.8
20260904224429 20 164 11.3 16.1 0.00 0.00 0.00 74 1013.9
20260904223929 20 161 11.3 19.3 0.00 0.00 0.00 69 1013.9
20260904223428 20 179 12.9 19.3 0.00 0.00 0.00 68 1013.9
20260904222931 20 163 11.3 19.3 0.00 0.00 0.00 64 1013.9
20260904222927 20 178 12.9 17.7 0.00 0.00 0.00 72 1013.9
20260904221926 20 157 12.9 19.3 0.00 0.00 0.00 63 1013.9
20260904221427 20 161 12.9 19.3 0.00 0.00 0.00 69 1013.9
20260904220927 20 158 12.9 19.3 0.00 0.00 0.00 66 1013.9
20260904220426 20 163 14.5 22.5 0.00 0.00 0.00 76 1013.8
20260904215927 20 155 14.5 24.1 0.00 0.00 0.00 78 1013.9
20260904215431 20 189 11.3 20.9 0.00 0.00 0.00 77 1013.9
20260904215427 21 159 12.9 24.1 0.00 0.00 0.00 76 1013.9
20260904214427 20 189 11.3 17.7 0.00 0.00 0.00 74 1014.1
20260904213927 20 141 11.3 19.3 0.00 0.00 0.00 74 1014.1
20260904213426 20 175 11.3 19.3 0.00 0.00 0.00 76 1014.0
20260904212927 20 145 12.9 20.9 0.00 0.00 0.00 77 1014.0
20260904212427 19 144 12.9 20.9 0.00 0.00 0.00 77 1014.1
20260904211926 19 151 11.3 19.3 0.00 0.00 0.00 78 1014.0
20260904211427 19 185 11.3 20.9 0.00 0.00 0.00 79 1014.1
20260904210929 20 182 12.9 19.3 0.00 0.00 0.00 75 1014.0
20260904210925 20 166 12.9 20.9 0.00 0.00 0.00 76 1014.2
20260904205924 21 163 11.3 19.3 0.00 0.00 0.00 75 1014.0
20260904205424 21 132 11.3 17.7 0.00 0.00 0.00 75 1014.0
20260904204925 21 157 11.3 17.7 0.00 0.00 0.00 74 1013.9
20260904204425 21 142 8.0 14.5 0.00 0.00 0.00 72 1014.0
20260904203925 21 151 8.0 14.5 0.00 0.00 0.00 72 1013.9
20260904203423 21 136 8.0 14.5 0.00 0.00 0.00 73 1014.0
20260904202923 21 183 9.7 16.1 0.00 0.00 0.00 73 1014.1
20260904202423 21 143 11.3 16.1 0.00 0.00 0.00 72 1014.1
20260904201923 21 144 9.7 16.1 0.00 0.00 0.00 73 1014.1
20260904201427 20 171 9.7 16.1 0.00 0.00 0.00 74 1014.2
20260904201423 21 136 8.0 16.1 0.00 0.00 0.00 72 1014.2
20260904200427 20 138 8.0 14.5 0.00 0.00 0.00 74 1014.1
20260904200423 20 134 9.7 14.5 0.00 0.00 0.00 73 1014.2
20260904195423 20 154 8.0 16.1 0.00 0.00 0.00 75 1014.3
20260904194922 20 126 9.7 19.3 0.00 0.00 0.00 75 1014.3
20260904194422 19 119 9.7 19.3 0.00 0.00 0.00 76 1014.4
20260904193923 19 165 11.3 16.1 0.00 0.00 0.00 76 1014.4
20260904193423 20 172 9.7 19.3 0.00 0.00 0.00 75 1014.5
20260904192927 20 158 9.7 16.1 0.00 0.00 0.00 75 1014.5
20260904192923 20 169 8.0 19.3 0.00 0.00 0.00 75 1014.5
20260904191922 20 122 9.7 16.1 0.00 0.00 0.00 74 1014.5
20260904191422 20 169 8.0 16.1 0.00 0.00 0.00 74 1014.5
20260904190927 20 142 9.7 17.7 0.00 0.00 0.00 75 1014.6
20260904190922 20 161 9.7 16.1 0.00 0.00 0.00 75 1014.6
20260904185922 20 168 9.7 17.7 0.00 0.00 0.00 75 1014.8
20260904185422 20 183 6.4 16.1 0.00 0.00 0.00 76 1014.6
20260904184926 20 95 8.0 14.5 0.00 0.00 0.00 76 1014.8
20260904184923 20 154 6.4 14.5 0.00 0.00 0.00 76 1014.8
20260904183922 20 136 4.8 11.3 0.00 0.00 0.00 77 1014.9
20260904183426 19 118 8.0 16.1 0.00 0.00 0.00 76 1014.9
20260904183422 20 132 6.4 14.5 0.00 0.00 0.00 78 1014.9
20260904182423 19 82 8.0 16.1 0.00 0.00 0.00 77 1015.0
20260904181926 19 151 6.4 14.5 0.00 0.00 0.00 77 1014.9
20260904181922 19 192 6.4 16.1 0.00 0.00 0.00 76 1015.0
20260904180927 18 134 8.0 17.7 0.00 0.00 0.00 80 1014.9
20260904180922 18 101 6.4 14.5 0.00 0.00 0.00 78 1014.9
20260904175920 18 165 9.7 17.7 0.00 0.00 0.00 81 1014.9
20260904175420 18 165 11.3 17.7 0.00 0.00 0.00 81 1015.0
20260904174920 18 170 9.7 17.7 0.00 0.00 0.00 80 1015.0
20260904174420 18 178 8.0 16.1 0.00 0.00 0.00 79 1014.9
20260904173920 18 182 6.4 12.9 0.00 0.00 0.00 79 1014.9
20260904173421 18 176 6.4 12.9 0.00 0.00 0.00 80 1014.8
20260904172926 18 188 8.0 14.5 0.00 0.00 0.00 81 1014.8
20260904172921 18 192 6.4 12.9 0.00 0.00 0.00 81 1014.8
20260904172527 18 140 9.7 16.1 0.00 0.00 0.00 82 1014.6
20260904172028 18 159 9.7 16.1 0.00 0.00 0.00 80 1014.5
20260904170920 18 176 6.4 12.9 0.00 0.00 0.00 83 1014.5
20260904170420 18 187 4.8 11.3 0.00 0.00 0.00 82 1014.4
20260904165920 17 154 4.8 11.3 0.00 0.00 0.00 85 1014.4
20260904165418 17 194 3.2 11.3 0.00 0.00 0.00 86 1014.4
20260904164918 17 115 3.2 11.3 0.00 0.00 0.00 89 1014.3
20260904164419 16 120 4.8 11.3 0.00 0.00 0.00 90 1014.3
20260904163925 16 69 6.4 16.1 0.00 0.00 0.00 95 1014.2
20260904163918 17 136 4.8 14.5 0.00 0.00 0.00 93 1014.3
20260904162916 16 141 8.0 16.1 0.00 0.00 0.00 95 1014.2
20260904162417 15 150 6.4 16.1 0.00 0.00 0.00 96 1014.2
20260904161917 15 148 1.6 12.9 0.00 0.00 0.00 97 1014.1
20260904161417 15 198 0.0 0.0 0.00 0.00 0.00 97 1014.1
20260904160915 15 118 0.0 0.0 0.00 0.00 0.00 97 1014.0
20260904160416 15 90 0.0 6.4 0.00 0.00 0.00 97 1014.0
20260904155916 15 132 0.0 6.4 0.00 0.00 0.00 97 1013.9
20260904155416 15 132 3.2 11.3 0.00 0.00 0.00 97 1013.9
20260904154914 15 107 4.8 14.5 0.00 0.00 0.00 97 1013.9
20260904154414 15 137 1.6 14.5 0.00 0.00 0.00 97 1013.9
20260904153914 14 115 0.0 0.0 0.00 0.00 0.00 97 1013.9
20260904153414 14 102 0.0 0.0 0.00 0.00 0.00 97 1013.9
20260904152914 14 103 0.0 0.0 0.00 0.00 0.00 97 1013.8
20260904152418 14 47 0.0 0.0 0.00 0.00 0.00 97 1013.8
20260904152414 14 102 0.0 0.0 0.00 0.00 0.00 97 1013.8
20260904151416 14 43 0.0 0.0 0.00 0.00 0.00 97 1013.8
20260904150911 14 55 0.0 0.0 0.00 0.00 0.00 97 1013.7
20260904150416 14 73 0.0 1.6 0.00 0.00 0.00 97 1013.8
20260904150411 14 67 0.0 1.6 0.00 0.00 0.00 97 1013.7
20260904145410 13 113 0.0 0.0 0.00 0.00 0.00 97 1013.7
20260904144910 13 95 0.0 0.0 0.00 0.00 0.00 97 1013.6
20260904144408 13 101 0.0 0.0 0.00 0.00 0.00 97 1013.6
20260904143908 14 101 0.0 0.0 0.00 0.00 0.00 97 1013.5
20260904143407 13 108 0.0 0.0 0.00 0.00 0.00 97 1013.5
20260904142906 13 126 0.0 0.0 0.00 0.00 0.00 97 1013.5
20260904142405 13 104 0.0 0.0 0.00 0.00 0.00 97 1013.5
20260904141905 13 108 0.0 0.0 0.00 0.00 0.00 97 1013.4
20260904141407 13 93 0.0 0.0 0.00 0.00 0.00 97 1013.2
20260904140907 13 58 0.0 0.0 0.00 0.00 0.00 97 1013.1
20260904140903 13 88 0.0 0.0 0.00 0.00 0.00 97 1013.2
20260904135908 13 32 0.0 0.0 0.00 0.00 0.00 97 1012.9
20260904135904 13 38 0.0 0.0 0.00 0.00 0.00 97 1013.0
20260904134907 13 34 3.2 8.0 0.00 0.00 0.00 97 1012.8
20260904134903 13 36 0.0 0.0 0.00 0.00 0.00 97 1012.9
20260904133859 13 40 4.8 9.7 0.00 0.00 0.00 97 1012.8
20260904133405 13 38 0.0 3.2 0.00 0.00 0.00 97 1012.8
20260904133359 13 51 1.6 9.7 0.00 0.00 0.00 97 1012.8
20260904132359 13 42 1.6 8.0 0.00 0.00 0.00 97 1012.8
20260904131900 13 76 4.8 9.7 0.00 0.00 0.00 97 1012.8
20260904131359 13 64 6.4 11.3 0.00 0.00 0.00 97 1012.9
20260904130900 13 76 4.8 11.3 0.00 0.00 0.00 97 1012.8
20260904130400 14 92 1.6 11.3 0.00 0.00 0.00 97 1012.9
20260904125900 14 101 0.0 6.4 0.00 0.00 0.00 97 1012.9
20260904125400 14 86 0.0 9.7 0.00 0.00 0.00 97 1012.7
20260904124900 13 86 3.2 9.7 0.00 0.00 0.00 97 1012.8
20260904124405 14 103 6.4 12.9 0.00 0.00 0.00 96 1012.7
20260904124400 14 76 4.8 11.3 0.00 0.00 0.00 97 1012.7
20260904123405 14 92 6.4 12.9 0.00 0.00 0.00 96 1012.6
20260904123359 14 97 6.4 12.9 0.00 0.00 0.00 96 1012.7
20260904122403 14 106 6.4 11.3 0.00 0.00 0.00 96 1012.6
20260904122357 14 113 6.4 11.3 0.00 0.00 0.00 96 1012.6
20260904121357 14 88 6.4 11.3 0.00 0.00 0.00 96 1012.6
20260904120857 14 93 6.4 16.1 0.00 0.00 0.00 96 1012.5
20260904120357 14 125 8.0 16.1 0.00 0.00 0.00 96 1012.6
20260904115858 14 96 9.7 16.1 0.00 0.00 0.00 96 1012.5
20260904115358 14 102 11.3 16.1 0.00 0.00 0.00 96 1012.6
20260904114857 14 112 11.3 17.7 0.00 0.00 0.00 96 1012.6
20260904114357 14 105 11.3 17.7 0.00 0.00 0.00 96 1012.6
20260904113857 14 98 8.0 14.5 0.00 0.00 0.00 96 1012.6
20260904113357 14 109 8.0 16.1 0.00 0.00 0.00 96 1012.6
20260904112858 14 105 11.3 16.1 0.00 0.00 0.00 96 1012.6
20260904112356 14 110 9.7 14.5 0.00 0.00 0.00 96 1012.5
20260904111855 14 102 11.3 16.1 0.00 0.00 0.00 96 1012.6
20260904111355 14 98 12.9 16.1 0.00 0.00 0.00 95 1012.6
20260904110855 14 110 12.9 17.7 0.00 0.00 0.00 95 1012.7
20260904110356 14 103 12.9 17.7 0.00 0.00 0.00 95 1012.7
20260904105859 14 105 14.5 19.3 0.00 0.00 0.00 95 1012.6
20260904105855 14 118 14.5 19.3 0.00 0.00 0.00 95 1012.7
20260904104855 14 111 12.9 19.3 0.00 0.00 0.00 95 1012.7
20260904104353 14 97 14.5 19.3 0.00 0.00 0.00 95 1012.6
20260904103851 14 109 14.5 19.3 0.00 0.00 0.00 95 1012.6
20260904103351 15 107 12.9 19.3 0.00 0.00 0.00 94 1012.6
20260904102850 15 94 12.9 20.9 0.00 0.00 0.00 94 1012.6
20260904102351 15 105 14.5 20.9 0.00 0.00 0.00 94 1012.6
20260904101851 15 101 16.1 20.9 0.00 0.00 0.00 94 1012.5
20260904101351 15 98 16.1 20.9 0.00 0.00 0.00 93 1012.5
20260904100856 15 84 14.5 20.9 0.00 0.00 0.00 93 1012.5
20260904100851 15 86 14.5 20.9 0.00 0.00 0.00 93 1012.5
20260904095851 15 99 16.1 20.9 0.00 0.00 0.00 92 1012.6
20260904095351 15 90 14.5 19.3 0.00 0.00 0.00 91 1012.5
20260904094851 15 90 14.5 17.7 0.00 0.00 0.00 91 1012.6
20260904094351 15 90 16.1 17.7 0.00 0.00 0.00 90 1012.6
20260904093848 15 83 14.5 17.7 0.00 0.00 0.00 90 1012.6
20260904093350 15 86 12.9 16.1 0.00 0.00 0.00 89 1012.6
20260904092849 15 74 11.3 14.5 0.00 0.00 0.00 89 1012.5
20260904092354 15 87 9.7 14.5 0.00 0.00 0.00 88 1012.5
20260904092350 15 88 11.3 14.5 0.00 0.00 0.00 88 1012.5
20260904091349 15 84 8.0 12.9 0.00 0.00 0.00 88 1012.5
20260904090848 15 86 9.7 14.5 0.00 0.00 0.00 87 1012.6
20260904090348 15 84 11.3 14.5 0.00 0.00 0.00 87 1012.5
20260904085852 16 79 9.7 14.5 0.00 0.00 0.00 87 1012.5
20260904085848 16 68 11.3 14.5 0.00 0.00 0.00 86 1012.7
20260904085459 16 86 9.7 12.9 0.00 0.00 0.00 85 1012.7
20260904085452 16 78 9.7 14.5 0.00 0.00 0.00 86 1012.6
20260904083847 16 91 9.7 16.1 0.00 0.00 0.00 84 1012.7
20260904083347 16 98 11.3 16.1 0.00 0.00 0.00 82 1012.7
20260904082846 16 91 11.3 16.1 0.00 0.00 0.00 78 1012.7
20260904082346 16 88 12.9 16.1 0.00 0.00 0.00 77 1012.8
20260904081847 16 86 14.5 17.7 0.00 0.00 0.00 75 1012.7
20260904081346 16 86 14.5 17.7 0.00 0.00 0.00 78 1012.8
20260904080847 16 90 14.5 17.7 0.00 0.00 0.00 80 1012.9
20260904080345 16 90 14.5 17.7 0.00 0.00 0.00 80 1012.9
20260904075849 16 92 14.5 17.7 0.00 0.00 0.00 75 1013.0
20260904075845 16 98 14.5 17.7 0.00 0.00 0.00 78 1012.9
20260904074848 16 100 12.9 16.1 0.00 0.00 0.00 70 1013.1
20260904074844 16 101 12.9 16.1 0.00 0.00 0.00 70 1013.1
20260904073844 16 97 12.9 16.1 0.00 0.00 0.00 66 1013.0
20260904073344 16 98 12.9 16.1 0.00 0.00 0.00 66 1013.0
20260904072844 16 96 12.9 16.1 0.00 0.00 0.00 65 1013.0
20260904072344 17 98 12.9 16.1 0.00 0.00 0.00 66 1013.0
20260904071849 17 97 12.9 16.1 0.00 0.00 0.00 65 1012.9
20260904071844 17 96 12.9 16.1 0.00 0.00 0.00 65 1012.9
20260904070845 17 96 12.9 16.1 0.00 0.00 0.00 66 1012.9
20260904070348 17 96 12.9 16.1 0.00 0.00 0.00 54 1012.8
20260904070344 17 94 12.9 16.1 0.00 0.00 0.00 61 1012.8
20260904065349 17 103 11.3 16.1 0.00 0.00 0.00 58 1012.9
20260904065345 17 102 11.3 14.5 0.00 0.00 0.00 56 1012.9
20260904064955 17 96 11.3 14.5 0.00 0.00 0.00 59 1012.9
20260904064948 17 101 12.9 16.1 0.00 0.00 0.00 56 1012.9
20260904063342 17 89 11.3 14.5 0.00 0.00 0.00 61 1012.8
20260904062842 17 90 11.3 14.5 0.00 0.00 0.00 57 1012.8
20260904062346 17 89 11.3 14.5 0.00 0.00 0.00 57 1012.8
20260904062342 17 92 11.3 14.5 0.00 0.00 0.00 58 1012.9
20260904061342 17 92 11.3 14.5 0.00 0.00 0.00 57 1012.8
20260904060840 17 77 9.7 14.5 0.00 0.00 0.00 60 1012.7
20260904060340 17 78 8.0 12.9 0.00 0.00 0.00 63 1012.8
20260904055846 17 59 8.0 9.7 0.00 0.00 0.00 77 1012.7
20260904055840 17 61 8.0 9.7 0.00 0.00 0.00 75 1012.7
20260904054840 17 42 9.7 12.9 0.00 0.00 0.00 77 1012.8
20260904054338 17 40 9.7 12.9 0.00 0.00 0.00 76 1012.8
20260904053842 17 32 9.7 12.9 0.00 0.00 0.00 78 1012.9
20260904053837 17 32 9.7 12.9 0.00 0.00 0.00 79 1012.8
20260904052836 17 32 9.7 12.9 0.00 0.00 0.00 79 1012.9
20260904052339 17 32 9.7 12.9 0.00 0.00 0.00 80 1012.8
20260904052335 17 32 8.0 12.9 0.00 0.00 0.00 81 1012.8
20260904051334 17 32 8.0 12.9 0.00 0.00 0.00 81 1012.9
20260904050833 17 24 8.0 9.7 0.00 0.00 0.00 81 1013.0
20260904050335 17 24 6.4 9.7 0.00 0.00 0.00 81 1013.0
20260904045834 18 22 6.4 8.0 0.00 0.00 0.00 81 1013.0
20260904045338 18 5 6.4 8.0 0.00 0.00 0.00 81 1013.0
20260904045334 18 18 6.4 8.0 0.00 0.00 0.00 81 1013.0
20260904044333 18 5 6.4 8.0 0.00 0.00 0.00 81 1012.9
20260904043834 18 5 6.4 8.0 0.00 0.00 0.00 82 1012.8
20260904043443 18 0 8.0 9.7 0.00 0.00 0.00 82 1012.9
20260904043334 18 5 6.4 8.0 0.00 0.00 0.00 82 1012.8
20260904042836 18 355 6.4 8.0 0.00 0.00 0.00 82 1012.9
20260904042832 18 0 6.4 8.0 0.00 0.00 0.00 82 1012.9
20260904041939 18 282 6.4 9.7 0.00 0.00 0.00 82 1012.8
20260904041332 18 5 8.0 9.7 0.00 0.00 0.00 82 1012.8
20260904040332 18 261 6.4 9.7 0.00 0.00 0.00 82 1012.8
20260904035837 18 228 1.6 6.4 0.00 0.00 0.00 81 1012.7
20260904035832 18 259 4.8 6.4 0.00 0.00 0.00 82 1012.7
20260904034832 18 205 0.0 1.6 0.00 0.00 0.00 81 1012.7
20260904034332 18 119 0.0 1.6 0.00 0.00 0.00 81 1012.7
20260904033830 18 119 0.0 1.6 0.00 0.00 0.00 81 1012.6
20260904033330 18 119 0.0 0.0 0.00 0.00 0.00 80 1012.5
20260904032829 18 119 0.0 6.4 0.00 0.00 0.00 80 1012.5
20260904032330 18 119 0.0 6.4 0.00 0.00 0.00 80 1012.5
20260904031830 18 119 1.6 6.4 0.00 0.00 0.00 80 1012.4
20260904031330 18 119 1.6 6.4 0.00 0.00 0.00 80 1012.4
20260904030830 18 117 0.0 4.8 0.00 0.00 0.00 79 1012.4
20260904030330 18 174 1.6 4.8 0.00 0.00 0.00 80 1012.4
20260904025829 18 174 1.6 4.8 0.00 0.00 0.00 80 1012.4
20260904025334 18 180 0.0 3.2 0.00 0.00 0.00 77 1012.3
20260904025329 18 178 0.0 4.8 0.00 0.00 0.00 79 1012.4
20260904024828 18 178 0.0 1.6 0.00 0.00 0.00 78 1012.3
20260904023826 18 182 1.6 4.8 0.00 0.00 0.00 77 1012.3
20260904023325 19 184 1.6 4.8 0.00 0.00 0.00 76 1012.4